TimePDT,TemperatureF,Dew PointF,Humidity,Sea Level PressureIn,VisibilityMPH,Wind Direction,Wind SpeedMPH,Gust SpeedMPH,PrecipitationIn,Events,Conditions,WindDirDegrees,DateUTC
12:55 AM,56.1,50.9,83,30.07,10.0,Calm,Calm,-,N/A,,Clear,0,2012-10-05 07:55:00
1:55 AM,55.6,50.9,84,30.06,10.0,Calm,Calm,-,N/A,,Clear,0,2012-10-05 08:55:00
2:55 AM,54.7,52.9,94,30.06,10.0,Calm,Calm,-,N/A,,Clear,0,2012-10-05 09:55:00
3:55 AM,53.4,52.5,97,30.05,9.0,Calm,Calm,-,N/A,,Clear,0,2012-10-05 10:55:00
4:55 AM,52.2,51.6,98,30.05,9.0,Calm,Calm,-,N/A,,Clear,0,2012-10-05 11:55:00
5:55 AM,52.2,50.7,95,30.06,10.0,Calm,Calm,-,N/A,,Clear,0,2012-10-05 12:55:00
6:55 AM,51.6,51.4,99,30.07,6.0,SE,3.5,-,N/A,,Overcast,140,2012-10-05 13:55:00
7:09 AM,51.8,51.8,100,30.07,0.8,SE,2.3,-,N/A,,Overcast,130,2012-10-05 14:09:00
7:16 AM,51.8,51.8,100,30.07,3.0,SE,2.3,-,N/A,,Mostly Cloudy,140,2012-10-05 14:16:00
7:37 AM,53.6,51.8,94,30.07,3.0,Calm,Calm,-,N/A,,Mostly Cloudy,0,2012-10-05 14:37:00
7:42 AM,53.6,53.6,100,30.07,0.5,South,1.2,-,N/A,Fog,Fog,180,2012-10-05 14:42:00
7:55 AM,53.2,53.2,100,30.07,0.8,Calm,Calm,-,N/A,,Mostly Cloudy,0,2012-10-05 14:55:00
8:12 AM,53.6,53.6,100,30.07,4.0,Calm,Calm,-,N/A,,Scattered Clouds,0,2012-10-05 15:12:00
8:55 AM,59.9,58.3,94,30.07,7.0,Calm,Calm,-,N/A,,Scattered Clouds,0,2012-10-05 15:55:00
9:55 AM,67.1,55.4,66,30.07,10.0,Calm,Calm,-,N/A,,Clear,0,2012-10-05 16:55:00
10:55 AM,72.1,53.6,52,30.06,10.0,Calm,Calm,-,N/A,,Clear,0,2012-10-05 17:55:00
11:55 AM,75.6,55.0,49,30.04,10.0,NNW,4.6,-,N/A,,Clear,330,2012-10-05 18:55:00
12:55 PM,78.1,55.9,46,30.02,10.0,Variable,3.5,-,N/A,,Clear,0,2012-10-05 19:55:00
1:55 PM,80.1,52.7,39,29.99,10.0,Variable,5.8,-,N/A,,Clear,0,2012-10-05 20:55:00
2:55 PM,81.3,50.0,33,29.97,10.0,NW,9.2,-,N/A,,Clear,310,2012-10-05 21:55:00
3:55 PM,81.1,47.5,31,29.96,10.0,NW,9.2,-,N/A,,Clear,310,2012-10-05 22:55:00
4:55 PM,79.7,49.8,35,29.95,10.0,NW,6.9,-,N/A,,Clear,320,2012-10-05 23:55:00
5:55 PM,76.6,53.6,45,29.96,10.0,WNW,9.2,-,N/A,,Clear,290,2012-10-06 00:55:00
6:55 PM,71.4,55.8,58,29.97,10.0,WNW,6.9,-,N/A,,Clear,300,2012-10-06 01:55:00
7:55 PM,68.7,56.3,64,29.99,10.0,West,3.5,-,N/A,,Clear,260,2012-10-06 02:55:00
8:55 PM,65.7,56.1,71,29.99,10.0,NW,3.5,-,N/A,,Clear,320,2012-10-06 03:55:00
9:55 PM,62.2,54.9,77,29.99,10.0,Calm,Calm,-,N/A,,Clear,0,2012-10-06 04:55:00
10:55 PM,62.4,52.7,70,29.99,10.0,Calm,Calm,-,N/A,,Scattered Clouds,0,2012-10-06 05:55:00
11:55 PM,60.1,53.4,79,29.99,10.0,Calm,Calm,-,N/A,,Partly Cloudy,0,2012-10-06 06:55:00